Springfield, OH

10:07 AM EDT on May 24, 2017 (GMT -0400)
Springfield-Beckley Municipal

Weather History for KSGH - October, 2012

Change the Weather History Date:

Friday, October 26, 2012

  Actual Average (KFFO) Record (KFFO)
Temperature  
Mean Temperature 52 °F -  
Max Temperature 63 °F 59 °F 78 °F (2000)
Min Temperature 42 °F 39 °F 31 °F (2013)
Degree Days  
Heating Degree Days 12    
Growing Degree Days 2 (Base 50)    
Moisture  
Dew Point 43 °F    
Average Humidity 87    
Maximum Humidity 93    
Minimum Humidity 62    
Precipitation  
Precipitation 0.83 in - - ()
Sea Level Pressure  
Sea Level Pressure 30.13 in    
Wind  
Wind Speed 11 mph (North)    
Max Wind Speed 20 mph    
Max Gust Speed 25 mph    
Visibility 4 miles    
Events      
Averages and records for this station are not official NWS values.
T = Trace of Precipitation, MM = Missing Value Source: NWS Daily Summary

Daily Weather History Graph

Daily Weather History Graph

Search for Another Location

Airport or City:

Trip Planner

Search our weather history database for the weather conditions in past years. The results will help you decide how hot, cold, wet, or windy it might be!

Date:

Astronomy

Oct. 26, 2012 Rise Set
Actual Time 7:57 AM EDT 6:39 PM EDT
Civil Twilight 7:30 AM EDT 7:07 PM EDT
Nautical Twilight 6:58 AM EDT 7:39 PM EDT
Astronomical Twilight 6:27 AM EDT 8:10 PM EDT
Moon 4:55 PM EDT (10/26) 4:53 AM EDT (10/26)
Length of Visible Light 11h 37m
Length of Day
10h 41m
Waxing Gibbous, 91% of the Moon is Illuminated
Oct 26
Waxing Gibbous
Oct 29
Full
Nov 6
Last Quarter
Nov 13
New
Nov 20
First Quarter

Hourly Weather History & Observations

Time (EDT) Temp. Windchill Dew Point Humidity Pressure Visibility Wind Dir Wind Speed Gust Speed Precip Events Conditions
12:56 AM 61.9 °F - 48.9 °F 62% 29.97 in 8.0 mi South 8.1 mph - N/A   Clear
1:56 AM 61.9 °F - 50.0 °F 65% 29.97 in 8.0 mi South 9.2 mph - N/A   Clear
2:56 AM 63.0 °F - 50.9 °F 65% 29.97 in 7.0 mi SSW 9.2 mph - N/A   Clear
3:56 AM 61.0 °F - 50.9 °F 69% 29.97 in 8.0 mi SSW 9.2 mph - N/A   Clear
4:56 AM 59.9 °F - 50.9 °F 72% 29.99 in 7.0 mi WSW 8.1 mph - N/A   Mostly Cloudy
5:56 AM 54.0 °F - 50.0 °F 86% 30.04 in 7.0 mi NW 12.7 mph - N/A   Scattered Clouds
6:10 AM 55.4 °F - 51.8 °F 88% 30.06 in 6.0 mi NW 10.4 mph - N/A   Mostly Cloudy
6:56 AM 52.0 °F - 47.8 °F 86% 30.07 in 5.0 mi NW 10.4 mph - N/A   Overcast
7:56 AM 52.0 °F - 46.9 °F 83% 30.09 in 5.0 mi NW 13.8 mph - N/A   Haze
8:17 AM 51.8 °F - 46.4 °F 82% 30.12 in 7.0 mi NW 19.6 mph 25.3 mph N/A   Overcast
8:30 AM 51.8 °F - 44.6 °F 76% 30.13 in 6.0 mi NNW 18.4 mph - N/A   Haze
8:56 AM 48.9 °F - 43.9 °F 83% 30.14 in 6.0 mi NNW 17.3 mph - N/A   Haze
9:12 AM 48.2 °F - 44.6 °F 87% 30.14 in 6.0 mi NNW 15.0 mph - N/A   Haze
9:56 AM 50.0 °F - 43.0 °F 77% 30.14 in 7.0 mi North 15.0 mph - N/A   Overcast
10:42 AM 48.2 °F - 42.8 °F 82% 30.16 in 6.0 mi North 16.1 mph - N/A   Haze
10:56 AM 47.8 °F - 41.9 °F 80% 30.17 in 6.0 mi North 12.7 mph - N/A   Haze
11:47 AM 46.4 °F 40.4 °F 42.8 °F 87% 30.17 in 4.0 mi North 13.8 mph - N/A   Overcast
11:56 AM 45.9 °F 40.4 °F 41.9 °F 86% 30.17 in 5.0 mi North 11.5 mph - N/A   Overcast
12:35 PM 46.4 °F 41.5 °F 42.8 °F 87% 30.17 in 2.0 mi North 10.4 mph - N/A   Overcast
12:56 PM 45.9 °F 41.7 °F 43.0 °F 90% 30.17 in 1.0 mi North 8.1 mph - 0.03 in   Overcast
1:02 PM 46.4 °F 42.9 °F 42.8 °F 87% 30.17 in 1.5 mi North 6.9 mph - 0.01 in   Overcast
1:13 PM 46.4 °F 42.9 °F 42.8 °F 87% 30.17 in 1.0 mi North 6.9 mph - 0.03 in   Overcast
1:31 PM 46.4 °F 42.4 °F 44.6 °F 93% 30.17 in 1.2 mi North 8.1 mph - 0.08 in   Overcast
1:38 PM 46.4 °F 41.1 °F 44.6 °F 93% 30.17 in 1.5 mi North 11.5 mph - 0.09 in   Overcast
1:47 PM 44.6 °F 38.8 °F 42.8 °F 93% 30.17 in 2.0 mi North 11.5 mph - 0.10 in   Overcast
1:56 PM 45.0 °F 39.3 °F 43.0 °F 93% 30.17 in 1.8 mi North 11.5 mph - 0.11 in   Overcast
2:11 PM 44.6 °F 39.2 °F 42.8 °F 93% 30.17 in 1.5 mi North 10.4 mph - 0.02 in   Mostly Cloudy
2:26 PM 44.6 °F 38.8 °F 42.8 °F 93% 30.17 in 1.8 mi North 11.5 mph - 0.05 in   Overcast
2:43 PM 44.6 °F 38.4 °F 42.8 °F 93% 30.17 in 1.2 mi North 12.7 mph - 0.08 in   Overcast
2:56 PM 43.9 °F 37.9 °F 41.9 °F 93% 30.17 in 1.2 mi North 11.5 mph - 0.11 in   Overcast
3:05 PM 44.6 °F 38.1 °F 42.8 °F 93% 30.16 in 1.5 mi North 13.8 mph - 0.02 in   Overcast
3:19 PM 44.6 °F 38.1 °F 41.0 °F 87% 30.15 in 2.0 mi North 13.8 mph - 0.03 in   Mostly Cloudy
3:24 PM 44.6 °F 37.8 °F 41.0 °F 87% 30.15 in 1.8 mi North 15.0 mph - 0.05 in   Mostly Cloudy
3:31 PM 44.6 °F 38.8 °F 41.0 °F 87% 30.15 in 1.5 mi North 11.5 mph - 0.06 in   Overcast
3:43 PM 44.6 °F 38.8 °F 41.0 °F 87% 30.15 in 2.0 mi North 11.5 mph - 0.08 in   Overcast
3:56 PM 43.9 °F 37.9 °F 41.9 °F 93% 30.16 in 2.5 mi North 11.5 mph - 0.10 in   Overcast
4:08 PM 44.6 °F 39.2 °F 41.0 °F 87% 30.15 in 3.0 mi North 10.4 mph - N/A   Overcast
4:27 PM 44.6 °F 38.8 °F 41.0 °F 87% 30.14 in 2.0 mi North 11.5 mph - 0.02 in   Overcast
4:45 PM 44.6 °F 38.4 °F 41.0 °F 87% 30.14 in 3.0 mi North 12.7 mph - 0.03 in   Overcast
4:56 PM 43.9 °F 38.3 °F 41.0 °F 90% 30.15 in 2.5 mi North 10.4 mph - 0.04 in   Overcast
5:03 PM 44.6 °F 38.8 °F 41.0 °F 87% 30.14 in 1.8 mi North 11.5 mph - 0.02 in   Overcast
5:06 PM 44.6 °F 38.1 °F 41.0 °F 87% 30.15 in 2.0 mi North 13.8 mph - 0.03 in   Overcast
5:34 PM 44.6 °F 37.4 °F 41.0 °F 87% 30.14 in 1.8 mi North 16.1 mph - 0.09 in   Overcast
5:45 PM 42.8 °F 35.8 °F 41.0 °F 93% 30.14 in 2.0 mi North 13.8 mph - 0.11 in   Overcast
5:56 PM 43.0 °F 36.0 °F 41.0 °F 93% 30.15 in 2.5 mi North 13.8 mph - 0.12 in   Overcast
6:25 PM 44.6 °F 39.2 °F 41.0 °F 87% 30.15 in 4.0 mi North 10.4 mph - 0.03 in   Overcast
6:56 PM 43.0 °F 37.2 °F 41.0 °F 93% 30.18 in 2.5 mi North 10.4 mph - 0.08 in   Overcast
7:04 PM 42.8 °F 37.0 °F 41.0 °F 93% 30.16 in 3.0 mi North 10.4 mph - 0.01 in   Overcast
7:56 PM 43.9 °F 37.5 °F 41.0 °F 90% 30.15 in 6.0 mi North 12.7 mph - 0.03 in   Overcast
8:28 PM 44.6 °F 38.4 °F 41.0 °F 87% 30.14 in 5.0 mi NNE 12.7 mph - 0.01 in   Overcast
8:40 PM 44.6 °F 38.1 °F 41.0 °F 87% 30.13 in 5.0 mi NNE 13.8 mph - 0.01 in   Overcast
8:56 PM 43.9 °F 37.5 °F 41.0 °F 90% 30.15 in 5.0 mi North 12.7 mph - 0.01 in   Overcast
9:07 PM 44.6 °F 38.8 °F 41.0 °F 87% 30.14 in 5.0 mi NNE 11.5 mph - 0.01 in   Overcast
9:22 PM 44.6 °F 39.7 °F 41.0 °F 87% 30.14 in 2.5 mi NNE 9.2 mph - 0.02 in   Overcast
9:44 PM 42.8 °F 37.5 °F 41.0 °F 93% 30.14 in 2.0 mi North 9.2 mph - 0.03 in   Overcast
9:56 PM 43.0 °F 37.2 °F 41.0 °F 93% 30.16 in 2.0 mi North 10.4 mph - 0.04 in   Overcast
10:36 PM 42.8 °F 37.5 °F 41.0 °F 93% 30.13 in 3.0 mi North 9.2 mph - 0.04 in   Overcast
10:56 PM 43.0 °F 36.8 °F 41.0 °F 93% 30.15 in 4.0 mi North 11.5 mph - 0.05 in   Overcast
11:31 PM 42.8 °F 36.2 °F 39.2 °F 87% 30.13 in 2.5 mi North 12.7 mph - 0.05 in   Overcast
11:56 PM 43.0 °F 36.8 °F 41.0 °F 93% 30.14 in 1.8 mi North 11.5 mph - 0.11 in   Overcast